This demonstration page uses our WeatherBlox Daily Observations layout. Learn more.

Left ArrowRight Arrow

39.51506, -84.39828

Hourly Observations for May 26, 2021

Temp ( °F °C ) Dew Point ( °F °C ) Humidity (%) Winds ( mph kmh ) Pressure ( in mb ) Visibility ( mi km ) Precip ( " mm )
12:15 am 00:15 Clear 69 20.7 65 18.6 88 88 WSW 3 6 30.04 1017 10 16 0.00 0.00
12:35 am 00:35 Clear 68 19.8 64 17.9 89 89 Calm 30.05 1017 10 16 0.00 0.00
12:55 am 00:55 Partly Cloudy with Mist and Fog 68 19.8 65 18.1 90 90 W 3 6 30.05 1017 7 11 0.00 0.00
1:15 am 01:15 Clear 65 18.3 64 18 98 98 W 3 6 30.05 1018 10 16 0.00 0.00
1:35 am 01:35 Clear 65 18.3 64 18 98 98 W 5 7 30.04 1017 10 16 0.00 0.00
1:55 am 01:55 Clear 65 18.6 65 18.1 97 97 W 5 7 30.04 1017 10 16 0.00 0.00
2:15 am 02:15 Clear 66 18.7 65 18.1 96 96 W 5 7 30.03 1017 10 16 0.00 0.00
2:35 am 02:35 Partly Cloudy 65 18.5 65 18.2 98 98 Calm 30.03 1017 10 16 0.00 0.00
2:55 am 02:55 Clear 66 19 65 18.2 95 95 WSW 3 6 30.03 1017 10 16 0.00 0.00
3:15 am 03:15 Clear with Mist and Fog 65 18.5 65 18.3 99 99 WSW 3 6 30.03 1017 7 11 0.00 0.00
3:35 am 03:35 Clear 64 18 64 18 100 100 Calm 30.03 1017 10 16 0.00 0.00
3:55 am 03:55 Partly Cloudy 65 18.3 65 18.2 99 99 Calm 30.03 1017 10 16 0.00 0.00
4:15 am 04:15 Partly Cloudy 64 18 64 18 100 100 Calm 30.03 1017 10 16 0.00 0.00
4:35 am 04:35 Clear 64 18 N/A N/A Calm 30.03 1017 10 16 0.00 0.00
4:55 am 04:55 Clear 65 18.3 65 18.1 99 99 WSW 3 6 30.03 1017 10 16 0.00 0.00
5:15 am 05:15 Clear 65 18.2 64 17.7 97 97 WSW 7 11 30.03 1017 10 16 0.00 0.00
5:35 am 05:35 Clear 66 18.8 64 17.9 95 95 WSW 6 9 30.02 1017 10 16 0.00 0.00
5:55 am 05:55 Clear 65 18.5 64 17.6 95 95 SW 6 9 30.02 1017 10 16 0.00 0.00
6:15 am 06:15 Sunny 65 18.6 64 17.5 93 93 WSW 5 7 30.02 1017 10 16 0.00 0.00
6:35 am 06:35 Partly Cloudy 65 18.2 64 17.7 97 97 W 5 7 30.03 1017 10 16 0.00 0.00
6:55 am 06:55 Partly Cloudy 66 18.8 65 18.3 97 97 WSW 6 9 30.03 1017 10 16 0.00 0.00
7:15 am 07:15 Cloudy 70 20.9 67 19.2 90 90 WSW 6 9 30.02 1017 10 16 0.00 0.00
7:35 am 07:35 Mostly Cloudy 70 21 66 18.8 87 87 WSW 7 11 30.03 1017 10 16 0.00 0.00
7:55 am 07:55 Mostly Cloudy 73 22.5 66 18.9 80 80 SW 8 13 30.03 1017 10 16 0.00 0.00
8:15 am 08:15 Partly Cloudy 72 22.3 65 18.6 80 80 SW 8 13 30.03 1017 10 16 0.00 0.00
8:35 am 08:35 Sunny 73 22.9 66 18.8 78 78 WSW 9 15 30.03 1017 10 16 0.00 0.00
8:55 am 08:55 Mostly Cloudy 76 24.3 65 18.5 70 70 WSW 13 20 30.02 1017 10 16 0.00 0.00
9:15 am 09:15 Mostly Cloudy 75 23.9 64 17.8 69 69 WSW 13 20 30.03 1017 10 16 0.00 0.00
9:35 am 09:35 Cloudy 76 24.2 64 17.9 68 68 WSW 10 17 30.03 1017 10 16 0.00 0.00
9:55 am 09:55 Mostly Cloudy 76 24.2 64 17.9 68 68 WSW 12 19 30.02 1017 10 16 0.00 0.00
10:15 am 10:15 Cloudy 77 24.8 65 18.2 67 67 W 14 22 30.02 1017 10 16 0.00 0.00
10:35 am 10:35 Cloudy 77 24.9 65 18.3 67 67 WSW 12 19 30.02 1017 10 16 0.00 0.00
10:55 am 10:55 Cloudy 78 25.4 65 18.2 64 64 W 15 24 30.01 1016 10 16 0.00 0.00
11:15 am 11:15 Cloudy 78 25.3 65 18.4 66 66 WSW 13 20 30.02 1017 10 16 0.00 0.00
11:35 am 11:35 Cloudy 78 25.3 65 18.4 66 66 WSW 9 15 30.02 1017 10 16 0.00 0.00
11:55 am 11:55 Cloudy 77 25 64 17.8 64 64 W 12 19 30.03 1017 10 16 0.00 0.00
12:15 pm 12:15 Cloudy with Rain 72 22.1 65 18.6 81 81 W 15 24 30.06 1018 4 6 0.02 0.51
12:35 pm 12:35 Cloudy with Rain 69 20.4 67 19.6 95 95 W 13 20 30.07 1018 5 8 0.10 2.54
12:55 pm 12:55 Mostly Cloudy with Rain 69 20.3 68 20.1 99 99 W 7 11 30.08 1019 5 8 0.17 4.32
1:15 pm 13:15 Cloudy with Rain 68 20 68 20 100 100 WSW 14 22 30.07 1018 4 6 0.03 0.76
1:35 pm 13:35 Cloudy with Rain 68 20 N/A N/A WSW 7 11 30.07 1018 4 6 0.07 1.78
1:55 pm 13:55 Cloudy with Light Rain 68 20 N/A N/A SW 9 15 30.06 1018 5 8 0.09 2.29
2:15 pm 14:15 Cloudy with Light Rain 68 20 N/A N/A WSW 8 13 30.06 1018 10 16 0.01 0.25
2:35 pm 14:35 Mostly Cloudy 69 20.7 69 20.7 100 100 WSW 13 20 30.06 1018 7 11 0.01 0.25
2:55 pm 14:55 Cloudy with Light Rain 70 20.9 69 20.8 99 99 SW 13 20 30.06 1018 10 16 0.01 0.25
3:15 pm 15:15 Cloudy 70 21.3 70 20.9 98 98 W 10 17 30.07 1018 10 16 0.00 0.00
3:35 pm 15:35 Cloudy 71 21.5 69 20.8 96 96 W 9 15 30.07 1018 10 16 0.00 0.00
3:55 pm 15:55 Partly Cloudy 72 22.2 70 21 93 93 W 14 22 30.07 1018 10 16 0.00 0.00
4:15 pm 16:15 Cloudy 73 22.6 69 20.8 90 90 W 10 17 30.07 1018 10 16 0.00 0.00
4:35 pm 16:35 Mostly Cloudy 74 23.1 70 20.9 87 87 W 10 17 30.06 1018 10 16 0.00 0.00
4:55 pm 16:55 Partly Cloudy 74 23.3 69 20.5 84 84 WSW 10 17 30.05 1018 10 16 0.00 0.00
5:15 pm 17:15 Partly Cloudy 74 23.6 69 20.3 82 82 WSW 12 19 30.05 1017 7 11 0.00 0.00
5:35 pm 17:35 Sunny 74 23.3 68 20.2 83 83 WSW 10 17 30.05 1018 10 16 0.00 0.00
5:55 pm 17:55 Sunny 74 23.3 68 20.1 82 82 W 14 22 30.05 1018 10 16 0.00 0.00
6:15 pm 18:15 Sunny 74 23.5 68 20.2 82 82 WSW 12 19 30.05 1017 10 16 0.00 0.00
6:35 pm 18:35 Sunny 74 23.1 69 20.3 84 84 WSW 9 15 30.04 1017 10 16 0.00 0.00
6:55 pm 18:55 Sunny 73 23 68 20.2 84 84 W 12 19 30.04 1017 10 16 0.00 0.00
7:15 pm 19:15 Sunny 73 22.8 69 20.3 86 86 WSW 10 17 30.04 1017 10 16 0.00 0.00
7:35 pm 19:35 Sunny 73 22.7 68 20.2 86 86 W 9 15 30.04 1017 10 16 0.00 0.00
7:55 pm 19:55 Sunny 73 22.5 69 20.3 87 87 W 9 15 30.05 1018 10 16 0.00 0.00
8:15 pm 20:15 Sunny 72 22 69 20.4 91 91 WSW 8 13 30.05 1018 10 16 0.00 0.00
8:35 pm 20:35 Sunny 71 21.6 69 20.4 93 93 WSW 9 15 30.05 1018 10 16 0.00 0.00
8:55 pm 20:55 Clear 70 21.2 68 20.2 94 94 WSW 8 13 30.05 1018 10 16 0.00 0.00
9:15 pm 21:15 Clear 69 20.8 68 20.1 96 96 WSW 7 11 30.06 1018 10 16 0.00 0.00
9:35 pm 21:35 Clear 69 20.6 68 20.1 97 97 WSW 8 13 30.06 1018 10 16 0.00 0.00
9:55 pm 21:55 Clear 69 20.3 68 20 98 98 WSW 9 15 30.06 1018 10 16 0.00 0.00
10:15 pm 22:15 Clear 69 20.3 68 19.9 98 98 WSW 8 13 30.07 1018 10 16 0.00 0.00
10:35 pm 22:35 Clear 68 20 68 20 100 100 WSW 7 11 30.07 1018 7 11 0.00 0.00
10:55 pm 22:55 Clear 68 20 N/A N/A WSW 8 13 30.07 1018 7 11 0.00 0.00
11:15 pm 23:15 Clear 68 20 N/A N/A WSW 7 11 30.07 1018 7 11 0.00 0.00
11:35 pm 23:35 Hazy 66 19 N/A N/A WSW 6 9 30.08 1019 5 8 0.00 0.00
11:55 pm 23:55 Hazy 66 19 N/A N/A WSW 7 11 30.08 1019 5 8 0.00 0.00

Powered by AerisWeather